Back to catalog

PRAETORIAN SDA_606

AliveMilitaryPO
NORAD 65569·PAYLOAD·🇺🇸 United States

Launched Sep 10, 2025 from Vandenberg Space Force Base

Loading…

Next Passes (next 24 hours)

TLE

FreshSource: Space-Track

Epoch: Sep 14, 2026, 11:55 UTC

1 65569U 25203E   26257.49702228  .00000051  00000-0  35879-4 0  9991
2 65569  81.3027 288.4392 0005247 320.4748  39.6025 13.83211129 51031

Track PRAETORIAN SDA_606 in real time with AllMySat

Download on the App Store